This demonstration page uses our WeatherBlox Daily Observations layout. Learn more.

Left ArrowRight Arrow

39.08367, -84.50855

Hourly Observations for December 7, 2022

Temp ( °F °C ) Dew Point ( °F °C ) Humidity (%) Winds ( mph kmh ) Pressure ( in mb ) Visibility ( mi km ) Precip ( " mm )
12:16 am 00:16 Cloudy with Light Rain 54 12.2 54 12.2 100 100 Calm 30.02 1017 2 2 0.08 2.03
12:19 am 00:19 Cloudy with Light Rain 54 12.2 54 12.2 100 100 Calm 30.02 1017 3 5 0.08 2.03
12:30 am 00:30 Cloudy with Mist and Fog 54 12.2 54 12.2 100 100 Calm 30.02 1017 6 10 0.08 2.03
12:53 am 00:53 Cloudy with Light Rain 54 12.2 53 11.7 97 97 N 5 7 30.01 1016 5 8 0.08 2.03
1:53 am 01:53 Cloudy 54 12.2 53 11.7 97 97 Calm 30.03 1017 7 11 0.01 0.13
2:53 am 02:53 Cloudy 53 11.7 53 11.7 100 100 Calm 30.06 1018 7 11 0.00 0.00
3:15 am 03:15 Cloudy with Mist and Fog 53 11.7 52 11.1 96 96 Calm 30.08 1018 6 10 0.00 0.00
3:23 am 03:23 Cloudy with Mist and Fog 53 11.7 52 11.1 96 96 Calm 30.08 1018 6 10 0.00 0.00
3:53 am 03:53 Cloudy with Mist and Fog 53 11.7 53 11.7 100 100 Calm 30.07 1018 4 6 0.00 0.00
4:53 am 04:53 Cloudy with Mist and Fog 53 11.7 52 11.1 96 96 Calm 30.09 1019 4 6 0.00 0.00
5:51 am 05:51 Cloudy with Mist and Fog 52 11 52 11 100 100 Calm 30.12 1020 4 6 0.00 0.00
5:53 am 05:53 Cloudy with Mist and Fog 52 11.1 52 11.1 100 100 Calm 30.11 1020 4 6 0.00 0.00
6:30 am 06:30 Cloudy with Mist and Fog 52 11.1 51 10.6 97 97 Calm 30.13 1020 2 3 0.00 0.00
6:53 am 06:53 Cloudy with Mist and Fog 52 11.1 52 11.1 100 100 Calm 30.13 1020 2 2 0.00 0.00
7:53 am 07:53 Cloudy with Mist and Fog 52 11.1 52 11.1 100 100 W 3 6 30.14 1021 2 3 0.00 0.00
8:53 am 08:53 Cloudy with Mist and Fog 53 11.7 52 11.1 96 96 Calm 30.17 1022 3 5 0.00 0.00
9:53 am 09:53 Cloudy with Mist and Fog 53 11.7 52 11.1 96 96 Calm 30.19 1022 5 8 0.00 0.00
10:53 am 10:53 Cloudy 54 12.2 51 10.6 90 90 W 5 7 30.20 1023 7 11 0.00 0.00
11:53 am 11:53 Cloudy with Mist and Fog 54 12.2 52 11.1 93 93 W 3 6 30.21 1023 6 10 0.00 0.00
12:53 pm 12:53 Cloudy 53 11.7 50 10 89 89 NW 7 11 30.21 1023 7 11 0.00 0.00
1:53 pm 13:53 Cloudy 53 11.7 49 9.4 86 86 Calm 30.21 1023 7 11 0.00 0.00
2:53 pm 14:53 Cloudy with Mist and Fog 53 11.7 49 9.4 86 86 WNW 6 9 30.22 1023 6 10 0.00 0.00
3:26 pm 15:26 Cloudy with Mist and Fog 53 11.7 49 9.4 86 86 NNW 6 9 30.23 1024 6 10 0.00 0.00
3:53 pm 15:53 Cloudy with Mist and Fog 52 11.1 49 9.4 89 89 NW 3 6 30.24 1024 6 10 0.00 0.00
4:53 pm 16:53 Cloudy with Mist and Fog 52 11.1 48 8.9 86 86 NW 7 11 30.27 1025 6 10 0.00 0.00
5:38 pm 17:38 Cloudy 52 11.1 47 8.3 83 83 NNW 6 9 30.29 1026 9 14 0.00 0.00
5:53 pm 17:53 Cloudy 52 11.1 47 8.3 83 83 NW 3 6 30.29 1026 8 13 0.00 0.00
6:53 pm 18:53 Cloudy 52 11.1 46 7.8 80 80 NNW 3 6 30.31 1026 8 13 0.00 0.00
7:53 pm 19:53 Cloudy 51 10.6 47 8.3 86 86 N 5 7 30.32 1027 7 11 0.00 0.00
8:53 pm 20:53 Cloudy with Mist and Fog 50 10 46 7.8 86 86 NNW 6 9 30.33 1027 6 10 0.00 0.00
9:53 pm 21:53 Cloudy with Haze 50 10 45 7.2 83 83 N 6 9 30.35 1028 6 10 0.00 0.00
10:53 pm 22:53 Cloudy with Mist and Fog 48 8.9 44 6.7 86 86 NNE 10 17 30.35 1028 5 8 0.00 0.00
11:53 pm 23:53 Cloudy with Haze 48 8.9 43 6.1 83 83 N 7 11 30.35 1028 6 10 0.00 0.00

Powered by AerisWeather